カタログに戻る

THORAD DELTA 1 DEB

運用中LEO
NORAD 8593·DEBRIS·🇺🇸 United States

打ち上げ Nov 15, 1974 から Vandenberg Space Force Base

Loading…

次のパス (今後24時間)

TLE

最新Source: Space-Track

元期: Sep 14, 2026, 08:57 UTC

1 08593U 74089DG  26257.37334078 -.00000050  00000-0 -75020-6 0  9997
2 08593 101.9235 212.9334 0223450 312.1634 203.8951 12.71148432403422

AllMySatでTHORAD DELTA 1 DEBをリアルタイム追跡

Download on the App Store